This is the latest recevied weather packets stored in our database for station/object N9ALD. If no packets are shown the sender has not sent any weather packets the latest 10 day(s).
| Time | Temp. | Humidity | Pressure | Rain* | Wind** | Luminosity | Snow |
|---|---|---|---|---|---|---|---|
| 1776965948 | 26.67° C | 37% | 1010.7 hPa | 0 mm | - | 707 W/m² | - |
| 1776965645 | 26.67° C | 36% | 1010.8 hPa | 0 mm | - | 715 W/m² | - |
| 1776965342 | 26.11° C | 38% | 1011 hPa | 0 mm | - | 710 W/m² | - |
| 1776965041 | 26.67° C | 37% | 1010.8 hPa | 0 mm | - | 711 W/m² | - |
| 1776964740 | 26.67° C | 42% | 1011 hPa | 0 mm | - | 728 W/m² | - |
| 1776964435 | 26.11° C | 41% | 1010.8 hPa | 0 mm | - | 738 W/m² | - |
| 1776964134 | 26.11° C | 41% | 1010.9 hPa | 0 mm | - | 489 W/m² | - |
| 1776963834 | 25.56° C | 42% | 1011.1 hPa | 0 mm | - | 742 W/m² | - |
| 1776963532 | 26.11° C | 41% | 1011.4 hPa | 0 mm | - | 526 W/m² | - |
| 1776963230 | 26.11° C | 40% | 1011.3 hPa | 0 mm | - | 199 W/m² | - |
| 1776962926 | 26.11° C | 45% | 1011.3 hPa | 0 mm | - | 692 W/m² | - |
| 1776962621 | 26.11° C | 44% | 1011.7 hPa | 0 mm | - | 679 W/m² | - |
| 1776962321 | 26.11° C | 43% | 1011.6 hPa | 0 mm | - | 684 W/m² | - |
| 1776962016 | 25.56° C | 46% | 1011.6 hPa | 0 mm | - | 679 W/m² | - |
| 1776961711 | 26.11° C | 42% | 1011.8 hPa | 0 mm | - | 676 W/m² | - |
| 1776961408 | 25.56° C | 46% | 1011.8 hPa | 0 mm | - | 668 W/m² | - |
| 1776961104 | 25.56° C | 43% | 1011.8 hPa | 0 mm | - | 660 W/m² | - |
| 1776960800 | 25.56° C | 46% | 1011.8 hPa | 0 mm | - | 652 W/m² | - |
| 1776960494 | 25.56° C | 45% | 1012 hPa | 0 mm | - | 645 W/m² | - |
| 1776960195 | 25° C | 46% | 1012 hPa | 0 mm | - | 640 W/m² | - |
| 1776959890 | 25° C | 47% | 1012.1 hPa | 0 mm | - | 634 W/m² | - |
| 1776959586 | 25° C | 48% | 1012.1 hPa | 0 mm | - | 623 W/m² | - |
| 1776959283 | 25° C | 47% | 1012.2 hPa | 0 mm | - | 623 W/m² | - |
| 1776958978 | 25° C | 47% | 1012.3 hPa | 0 mm | - | 614 W/m² | - |
| 1776958678 | 25° C | 48% | 1012.3 hPa | 0 mm | - | 605 W/m² | - |
* Rain latest hour (hover to see other rain measurements)
** Current wind speed in m/s (hover to see current wind gust speed)